Location: Chacón
(10.5789°N, 66.9317°W)
Time: 19:45:43
(UTC+00:00)

RESURS DK-1 - Pass Details

Date: 23 May 2024
Orbit: 541 x 547 km, 69.9° (Epoch: 22 June)

Event Time Altitude Azimuth Distance (km) Brightness Sun altitude
Rises 08:37:47 0° 335° (NNW) 2,702 5.9 -20.4°
Reaches altitude 10° 08:40:01 10° 329° (NNW) 1,811 4.9 -19.9°
Maximum altitude 08:43:55 50° 254° (WSW) 700 2.4 -19.0°
Enters shadow 08:44:33 45° 222° (SW) 749 2.5 -18.9°
